Wetbulb
64.66 64.25 59.13 55.68 48.29 47.53 44.16 48.11 52.42 52.81 56.61 62.55 64.79 61.97 59.72 61.33 59.11 55.90 70.44 72.29 72.82 73.16 74.28 74.51 75.88 76.28 75.22 74.82 74.16 74.55 75.41 75.53 75.13 73.71 73.63 72.66 71.61 70.56 70.73 71.33 71.20 70.85 69.63 69.40 69.23 69.27 69.04 68.47 68.27
59.67 60.63 52.37 49.23 43.70 39.54 42.44 50.46 51.90 53.37 61.47 63.84 63.73 63.70 61.02 58.46 66.12 66.93 68.87 72.49 72.90 73.04 73.21 73.64 76.34 76.24 75.25 75.05 74.78 75.26 75.73 75.16 74.26 73.43 72.31 71.02 70.95 70.96 70.45 71.03 70.95 70.34 69.01 68.93 69.02 69.19 68.94 68.19 67.78
59.91 54.80 49.41 45.12 42.24 40.31 42.91 50.54 53.19 56.09 62.25 62.01 60.50 63.73 61.44 62.23 66.67 67.30 71.27 72.36 72.64 72.23 73.05 74.30 76.43 76.06 75.20 74.83 75.11 75.55 75.60 74.78 73.93 72.59 71.15 70.65 70.59 70.68 70.99 70.87 70.63 69.96 68.71 68.77 68.84 68.77 67.91 67.05 67.18
52.25 50.04 47.06 43.92 39.04 44.80 48.08 51.14 55.10 57.12 60.93 62.27 61.92 58.74 62.73 66.95 66.17 70.35 72.13 72.44 71.73 71.67 72.50 74.76 75.83 75.43 74.68 74.42 74.17 75.11 74.78 74.21 73.47 71.92 70.67 70.28 69.78 70.24 70.73 70.76 70.41 69.82 68.42 68.18 68.42 67.87 66.73 66.55 66.54
47.16 45.05 40.46 38.08 39.80 43.98 48.93 52.47 56.49 56.73 59.57 60.48 62.07 58.62 59.94 67.39 70.69 70.94 71.12 71.77 70.97 70.99 72.20 72.82 75.38 75.51 75.16 74.31 74.65 75.01 74.43 73.76 72.68 71.62 70.33 69.85 69.70 69.97 70.40 70.32 70.05 69.20 67.58 67.70 67.93 67.21 66.51 66.83 66.15
44.60 42.23 37.41 35.31 38.72 43.71 46.71 54.36 57.26 58.21 60.03 60.69 60.39 60.09 61.32 68.53 68.76 69.80 71.17 70.79 71.79 71.43 71.79 72.76 75.06 75.43 75.01 74.96 75.31 74.46 73.84 73.04 72.11 71.42 71.03 69.73 69.60 69.61 69.40 69.86 69.03 67.44 67.23 67.53 67.40 66.51 65.89 67.02 66.30
42.96 39.56 35.90 35.26 39.17 41.96 45.83 55.49 56.05 57.64 58.59 58.17 61.74 57.36 61.80 66.16 69.04 70.50 70.69 71.29 71.94 71.62 71.44 71.70 72.48 73.24 74.63 75.15 74.78 73.79 73.09 72.52 71.65 71.30 71.03 70.31 69.08 69.02 68.94 69.09 68.19 66.92 67.53 67.66 66.84 65.76 65.45 65.60 65.32
43.09 40.47 35.83 36.45 38.22 40.34 47.08 55.57 57.60 59.10 56.90 60.26 63.36 57.60 58.35 66.10 69.63 69.71 70.25 70.65 70.34 71.05 71.37 70.43 70.86 71.86 72.46 72.97 73.98 73.04 72.42 71.57 71.63 70.83 70.25 70.25 68.96 68.23 67.86 68.09 68.21 66.05 66.92 67.21 66.25 65.77 64.92 64.16 63.59
43.23 40.26 36.67 38.42 40.04 45.74 49.21 53.76 58.43 60.15 58.82 60.40 62.02 61.36 65.63 68.68 68.76 68.07 67.42 66.21 65.76 67.94 68.17 68.17 69.22 69.27 69.16 70.36 71.57 72.42 71.43 70.17 70.31 69.83 69.88 68.99 65.23 65.44 64.14 65.44 66.49 66.41 66.33 66.30 65.92 64.52 63.33 61.52 60.69
42.89 38.34 40.43 43.33 44.97 44.51 51.68 54.59 56.16 57.47 58.86 59.22 61.66 65.56 66.86 67.69 66.38 65.24 64.87 63.17 63.46 64.67 66.33 66.91 66.69 67.84 69.00 68.90 67.21 66.87 65.97 66.06 66.43 66.42 67.22 65.62 63.94 64.22 65.02 65.65 66.84 66.99 65.36 65.31 63.91 62.69 61.34 58.46 55.95
40.87 41.53 42.78 45.26 46.44 46.99 51.31 55.98 58.86 55.60 56.15 58.88 59.30 62.47 64.72 64.69 64.45 64.43 63.92 63.04 62.91 64.82 65.62 65.60 65.60 66.67 66.31 64.38 63.24 62.01 61.95 63.33 62.85 63.85 64.82 63.28 61.42 61.91 61.29 59.94 59.21 59.44 61.25 58.02 57.90 57.15 56.44 55.70 55.17
40.33 45.08 44.49 50.66 55.59 54.51 53.65 57.63 57.15 59.29 60.21 62.50 62.79 62.84 61.84 61.38 61.38 62.49 62.90 61.38 61.27 65.11 64.29 62.72 62.08 61.70 60.84 60.83 59.82 60.05 60.30 60.97 60.65 61.30 62.65 60.97 59.50 59.15 58.70 58.27 58.54 58.50 58.10 57.34 57.07 56.34 56.18 55.01 54.72
41.06 45.52 52.22 57.32 57.45 57.08 58.14 56.47 56.81 58.65 61.15 62.39 62.78 62.66 62.04 61.14 60.67 62.09 62.54 61.47 63.43 61.27 61.27 60.95 60.93 60.05 59.93 59.72 59.40 59.64 60.07 59.25 59.81 60.20 60.44 59.79 59.05 58.94 59.37 59.22 59.17 58.99 58.55 57.67 56.92 56.10 55.28 53.89 53.19
44.96 50.12 54.48 57.32 57.19 57.93 56.21 56.45 56.80 58.00 60.39 60.05 60.35 59.87 60.42 60.54 60.09 60.59 61.30 60.92 60.64 60.77 61.41 61.05 60.10 60.15 60.15 59.37 59.17 58.74 58.46 58.96 59.08 59.32 59.23 59.51 60.11 59.52 59.98 59.57 59.15 58.78 58.36 57.53 56.50 55.44 54.87 53.39 51.89
44.92 42.90 52.30 55.91 50.65 55.81 58.10 54.05 55.09 58.97 59.08 57.88 58.76 59.94 59.74 59.09 60.11 60.34 60.69 59.54 60.17 60.85 61.31 60.98 60.32 60.18 59.96 59.11 59.23 59.81 60.58 60.86 60.41 60.28 60.73 60.78 59.79 59.60 59.17 58.08 56.88 57.97 57.16 56.37 56.71 55.87 54.68 52.91 52.17
44.42 42.76 43.29 53.31 54.93 57.26 55.99 51.32 57.39 58.30 57.48 56.73 58.33 59.59 59.75 59.59 59.83 60.47 60.30 60.33 60.46 59.57 58.81 60.24 60.72 60.30 59.78 59.62 60.31 61.04 61.49 61.73 61.77 61.66 61.63 61.44 60.78 60.56 58.77 57.50 58.39 57.32 56.86 55.85 55.24 53.78 52.72 51.59 51.33
42.01 39.15 42.72 50.39 56.48 55.39 54.60 52.94 56.64 57.83 56.46 55.46 56.68 57.74 58.53 58.69 59.16 60.04 60.52 59.89 59.44 59.32 59.18 59.46 60.47 60.39 60.33 60.84 61.25 61.50 61.53 61.38 61.42 61.42 61.20 60.97 61.52 61.56 59.38 58.58 58.84 57.33 55.50 54.81 54.82 52.77 51.75 50.83 51.59
38.77 41.82 48.86 49.07 53.15 54.40 52.88 52.36 54.80 56.98 55.95 54.85 55.13 56.30 56.79 57.17 58.54 59.71 59.16 58.92 58.39 57.40 56.86 56.78 57.25 57.79 59.81 60.77 60.84 60.37 60.61 60.70 61.10 59.82 60.21 60.14 60.66 60.88 59.55 57.74 57.69 55.91 54.27 53.21 52.96 51.35 51.67 51.07 50.20
45.83 49.63 48.90 51.64 53.20 51.65 51.11 51.60 52.94 55.13 54.85 53.48 53.48 53.99 54.96 56.18 57.96 58.31 57.35 57.03 56.55 55.54 55.28 55.48 55.45 56.50 56.68 57.10 56.98 57.71 56.90 58.71 59.03 59.22 58.12 58.58 58.94 59.33 59.35 58.04 57.59 56.44 54.22 53.06 52.79 51.67 50.53 50.02 49.92
46.87 47.02 46.16 49.31 52.23 51.23 50.58 50.87 52.49 53.79 53.71 54.42 54.52 54.05 54.09 55.65 55.03 54.88 54.57 54.46 54.09 54.22 54.26 54.18 54.26 55.94 56.10 56.62 56.56 56.52 56.30 58.05 57.96 59.16 57.44 58.10 58.08 57.34 57.77 58.60 57.70 57.14 54.81 52.46 51.27 51.13 50.49 49.83 50.31
41.32 40.95 45.16 46.44 50.25 51.06 49.34 47.79 49.79 52.74 53.60 53.93 54.19 54.85 54.75 53.95 53.03 52.94 52.76 53.78 54.57 54.87 55.27 55.23 54.61 55.47 55.43 55.65 55.84 55.52 55.52 56.26 55.58 55.29 56.48 57.09 56.57 54.90 55.15 56.30 57.25 57.32 54.29 52.15 51.38 51.02 51.18 50.04 50.26
40.90 48.66 50.12 48.87 45.57 41.52 47.24 39.07 47.61 49.88 49.88 51.32 51.36 51.96 52.43 53.34 53.23 52.94 53.00 53.08 53.87 54.09 54.72 53.99 54.66 54.54 54.26 53.21 51.08 49.52 49.73 50.02 52.20 52.45 53.44 50.48 52.48 52.36 54.31 54.11 54.68 55.69 54.43 52.32 51.48 52.57 51.90 50.82 48.97
43.83 51.39 50.08 48.64 37.78 40.39 42.98 39.64 46.68 49.04 47.13 48.99 50.48 51.27 51.83 52.07 51.90 50.57 50.64 51.42 52.12 52.59 52.38 52.06 51.68 51.04 50.20 49.29 48.69 48.41 48.01 49.16 50.23 49.76 48.45 48.96 50.10 51.42 53.13 53.62 53.81 54.01 52.94 52.16 52.10 52.20 51.30 50.55 49.51
47.47 43.93 40.38 38.00 35.84 32.08 38.72 39.88 43.03 46.17 48.57 49.41 50.72 50.56 50.03 47.89 48.21 49.20 50.78 50.70 50.50 50.90 50.79 50.68 49.55 49.17 48.59 47.49 47.37 47.16 46.99 46.83 46.58 47.46 48.45 49.36 49.57 50.23 51.72 52.41 52.36 53.07 53.63 53.82 53.49 51.67 50.87 50.72 50.42
44.45 38.32 32.49 31.82 31.40 29.57 41.95 40.01 45.37 48.94 50.30 50.59 49.66 48.71 47.43 48.73 49.17 47.70 47.75 47.68 48.14 48.11 49.02 48.84 48.73 49.01 47.98 46.58 46.55 46.66 47.30 47.05 46.26 46.72 47.95 48.31 48.86 49.73 50.82 50.82 51.48 52.20 53.05 53.30 53.28 51.62 51.50 51.66 50.57
39.56 37.90 33.22 28.10 28.50 30.67 41.96 39.19 43.26 49.53 50.58 49.68 49.40 47.07 48.13 47.58 47.02 46.72 47.32 46.69 46.50 47.04 46.86 46.29 46.39 45.32 45.67 45.92 45.99 46.48 47.00 45.89 45.78 46.22 46.88 47.90 48.55 51.41 51.66 51.09 51.60 51.79 52.52 52.69 52.80 52.29 51.32 51.46 51.08
42.34 38.78 39.12 34.75 32.95 32.79 38.56 43.58 47.45 48.49 48.39 48.78 47.13 46.86 46.82 46.76 47.29 47.97 47.29 45.67 45.23 45.48 45.82 44.96 44.56 44.64 45.35 45.38 45.40 46.64 46.10 45.61 45.41 45.83 46.84 47.67 49.20 49.83 51.30 50.42 50.77 50.55 52.55 53.00 52.76 51.49 51.82 52.15 51.47
44.48 44.52 37.18 35.40 30.16 28.53 36.20 37.29 38.42 45.21 45.92 47.76 47.54 47.00 47.24 46.50 47.48 48.21 46.32 45.46 46.00 46.27 45.02 44.66 44.71 44.57 45.00 45.24 44.71 46.65 45.92 45.82 46.10 46.03 46.20 47.31 47.99 49.23 50.03 50.47 50.70 51.10 51.65 51.47 52.00 51.16 52.07 52.38 50.87
41.33 39.99 38.61 36.32 34.16 29.26 28.65 33.08 45.55 45.02 47.02 48.16 48.33 48.03 47.06 47.37 47.70 45.10 44.88 45.61 45.72 45.93 44.23 44.56 44.78 45.35 47.00 46.18 44.62 44.77 45.92 46.27 46.47 46.59 47.26 47.58 48.26 48.67 49.38 50.47 50.68 50.10 49.20 49.49 50.39 49.75 49.46 49.16 49.12
44.21 40.28 38.02 33.29 32.68 34.70 32.77 32.51 45.34 45.83 47.58 47.43 47.99 47.86 48.00 46.25 44.38 44.34 44.87 45.70 45.96 44.08 44.26 44.74 45.16 47.56 47.20 45.81 45.13 45.44 45.88 47.02 46.56 46.63 46.40 47.58 48.08 49.42 49.85 48.98 48.50 47.51 46.52 46.17 46.86 46.29 46.20 46.41 47.39
MSLP
1010.68 1011.08 1011.51 1011.86 1012.84 1013.34 1013.21 1012.79 1011.94 1011.30 1010.70 1010.56 1010.86 1011.29 1012.23 1013.29 1014.41 1015.95 1015.59 1015.20 1015.28 1015.44 1015.14 1015.41 1015.69 1015.78 1015.88 1015.86 1016.14 1016.41 1016.51 1016.86 1017.07 1017.25 1017.59 1017.82 1018.22 1018.48 1018.67 1018.72 1018.77 1018.75 1018.73 1018.72 1018.76 1018.79 1018.88 1018.82 1018.75
1010.79 1011.24 1011.72 1012.16 1013.08 1013.77 1012.97 1012.14 1011.50 1010.84 1010.81 1010.85 1010.81 1011.36 1012.17 1014.28 1013.94 1014.24 1014.27 1014.84 1014.41 1014.37 1014.89 1014.75 1015.00 1015.69 1016.08 1016.23 1016.40 1016.44 1016.61 1016.94 1017.28 1017.55 1017.77 1018.02 1018.12 1018.31 1018.45 1018.67 1018.76 1018.84 1018.91 1019.00 1019.05 1019.12 1019.10 1019.21 1019.10
1010.82 1011.09 1011.93 1012.70 1013.66 1013.34 1012.34 1011.24 1010.80 1010.52 1010.85 1010.89 1011.29 1011.61 1012.55 1013.98 1014.09 1014.22 1014.07 1014.43 1014.48 1014.54 1014.80 1015.02 1014.98 1014.84 1015.06 1015.57 1015.96 1016.21 1016.50 1016.79 1017.15 1017.73 1018.15 1018.37 1018.38 1018.49 1018.52 1018.65 1018.73 1018.87 1019.06 1019.23 1019.24 1019.31 1019.37 1019.38 1019.37
1011.11 1011.64 1012.55 1012.75 1013.11 1012.00 1011.24 1010.34 1010.22 1010.53 1011.21 1011.32 1011.69 1012.49 1013.41 1014.04 1014.08 1014.26 1014.65 1014.52 1015.12 1014.91 1015.16 1015.18 1015.29 1015.66 1016.32 1016.33 1016.51 1016.99 1017.33 1017.59 1017.71 1017.78 1018.25 1018.64 1018.83 1018.76 1018.61 1018.69 1018.77 1018.90 1019.12 1019.23 1019.40 1019.49 1019.61 1019.62 1019.60
1011.70 1012.47 1013.01 1013.07 1012.48 1011.24 1010.43 1009.69 1010.02 1011.19 1011.32 1012.12 1012.11 1013.32 1014.31 1014.82 1014.47 1014.44 1014.96 1015.48 1015.47 1015.52 1015.33 1015.30 1015.54 1015.99 1016.29 1016.51 1016.87 1016.80 1017.24 1017.85 1018.02 1017.75 1018.16 1018.48 1018.68 1019.08 1019.29 1019.31 1019.27 1019.43 1019.55 1019.59 1019.64 1019.72 1019.74 1019.80 1019.81
1011.94 1012.86 1013.31 1013.15 1012.06 1010.70 1009.55 1009.12 1009.74 1010.80 1011.67 1012.25 1013.03 1013.91 1015.07 1015.05 1015.10 1015.41 1015.57 1015.66 1015.57 1015.80 1015.68 1015.60 1015.83 1015.94 1016.71 1016.92 1017.15 1017.50 1017.65 1017.77 1018.09 1018.44 1018.43 1018.53 1018.79 1019.06 1019.18 1019.43 1019.54 1019.70 1019.71 1019.69 1019.82 1019.81 1019.89 1020.00 1019.97
1011.83 1012.83 1013.01 1012.64 1011.69 1010.47 1009.36 1009.15 1010.11 1010.85 1011.65 1012.36 1012.89 1014.58 1015.24 1015.50 1015.80 1015.91 1016.10 1016.30 1016.25 1016.29 1016.52 1016.65 1016.80 1016.91 1016.80 1017.27 1017.43 1017.67 1018.21 1018.46 1018.59 1018.74 1018.94 1019.04 1019.19 1019.36 1019.57 1019.63 1019.65 1019.76 1019.94 1019.95 1019.94 1020.03 1020.14 1020.24 1020.36
1011.38 1012.47 1012.76 1012.32 1011.70 1010.66 1009.85 1009.95 1010.23 1010.56 1012.04 1012.35 1013.06 1014.50 1015.62 1015.94 1016.31 1016.46 1016.68 1016.89 1016.95 1016.90 1017.10 1017.33 1017.17 1016.89 1017.26 1017.40 1017.78 1017.98 1018.25 1018.61 1018.78 1018.83 1018.96 1019.13 1019.36 1019.62 1019.71 1019.83 1019.84 1020.04 1020.13 1020.13 1020.28 1020.34 1020.47 1020.56 1020.64
1011.11 1012.08 1012.43 1011.61 1011.14 1010.16 1010.06 1010.97 1011.42 1011.80 1012.37 1013.67 1014.26 1014.51 1015.20 1015.77 1016.11 1016.56 1016.99 1017.37 1017.53 1017.87 1018.26 1018.20 1017.99 1017.51 1017.67 1017.91 1018.07 1018.36 1018.62 1018.73 1018.99 1019.18 1019.27 1019.47 1019.65 1019.85 1020.02 1020.00 1019.97 1020.15 1020.27 1020.37 1020.43 1020.57 1020.79 1020.90 1020.87
1011.23 1012.15 1011.40 1010.37 1010.51 1010.15 1011.64 1012.01 1012.83 1013.24 1013.81 1015.32 1015.38 1016.01 1016.31 1016.74 1016.92 1017.28 1017.73 1018.13 1018.21 1019.05 1019.29 1019.11 1018.94 1017.99 1017.50 1018.37 1019.18 1019.40 1019.57 1019.71 1019.83 1019.92 1019.79 1019.80 1019.69 1020.01 1020.09 1020.15 1020.10 1020.25 1020.45 1020.61 1020.73 1020.84 1020.95 1021.07 1021.14
1010.98 1011.09 1010.49 1010.41 1010.41 1010.39 1012.25 1013.47 1014.20 1014.26 1015.46 1016.08 1016.52 1016.89 1017.32 1017.75 1018.10 1018.42 1018.79 1019.12 1020.16 1020.11 1019.96 1019.61 1019.29 1018.73 1017.39 1019.20 1019.93 1020.12 1020.36 1020.21 1020.16 1019.94 1020.08 1020.16 1019.88 1019.79 1020.24 1020.64 1020.83 1020.81 1020.78 1021.07 1021.20 1021.17 1021.16 1021.36 1021.39
1010.74 1010.35 1010.96 1011.29 1011.73 1011.91 1013.57 1015.52 1016.25 1016.22 1017.17 1017.26 1017.62 1018.08 1018.63 1019.15 1019.45 1019.72 1020.05 1020.31 1020.67 1020.81 1020.78 1020.37 1019.50 1019.20 1019.12 1020.11 1020.29 1020.46 1020.53 1020.54 1020.49 1020.19 1020.29 1020.56 1020.63 1020.49 1020.45 1020.72 1020.96 1020.89 1020.97 1020.98 1021.18 1021.26 1021.31 1021.34 1021.45
1010.53 1011.33 1012.62 1013.22 1012.93 1014.23 1015.23 1016.52 1017.51 1018.01 1018.22 1018.21 1018.43 1018.98 1019.46 1020.07 1020.51 1020.60 1020.59 1020.99 1021.20 1021.39 1021.39 1021.16 1020.19 1020.25 1020.07 1020.35 1020.50 1020.70 1020.99 1020.83 1020.76 1020.85 1020.85 1020.80 1020.78 1020.78 1020.65 1020.76 1020.87 1020.87 1020.97 1021.02 1021.15 1021.26 1021.20 1021.55 1021.38
1010.61 1012.08 1013.63 1014.35 1014.23 1015.54 1015.52 1017.50 1017.52 1019.36 1019.25 1019.31 1019.62 1020.12 1020.42 1020.58 1020.85 1021.37 1021.25 1021.77 1022.05 1021.86 1021.96 1021.62 1021.37 1021.34 1021.25 1021.05 1021.26 1021.25 1021.21 1021.39 1021.39 1021.29 1021.15 1020.94 1020.76 1020.94 1021.00 1021.14 1021.31 1021.17 1021.05 1021.06 1021.09 1021.33 1021.26 1021.57 1021.66
1010.68 1012.42 1013.56 1014.81 1015.22 1015.33 1015.06 1017.96 1019.45 1020.06 1020.03 1020.20 1020.53 1020.72 1021.09 1021.44 1021.63 1021.90 1022.19 1022.44 1022.40 1022.61 1022.50 1022.17 1022.24 1022.20 1021.86 1021.96 1021.64 1021.67 1021.55 1021.46 1021.52 1021.50 1021.45 1021.36 1021.38 1021.19 1021.05 1021.32 1021.47 1021.36 1021.15 1021.41 1021.43 1021.37 1021.22 1021.40 1021.61
1011.19 1012.73 1014.15 1015.62 1015.10 1015.52 1015.38 1019.35 1020.16 1020.55 1020.70 1020.99 1021.14 1021.32 1021.72 1021.95 1022.34 1022.44 1022.52 1022.62 1022.65 1022.42 1022.69 1022.69 1022.55 1022.49 1022.76 1022.62 1022.59 1022.25 1021.98 1021.74 1021.52 1021.47 1021.83 1021.52 1021.69 1021.47 1021.54 1021.17 1021.78 1021.43 1021.13 1021.30 1021.46 1021.68 1021.75 1021.57 1021.82
1012.92 1014.48 1015.67 1016.17 1015.91 1015.84 1016.34 1019.74 1020.89 1021.14 1021.30 1021.92 1022.00 1022.12 1022.23 1022.59 1022.83 1022.99 1023.11 1023.15 1023.35 1023.34 1023.29 1022.94 1022.66 1023.12 1022.92 1022.89 1022.68 1022.57 1022.35 1022.10 1022.02 1021.80 1022.13 1021.79 1021.51 1021.18 1021.68 1021.42 1021.28 1021.37 1021.58 1021.44 1021.36 1021.59 1021.79 1021.53 1021.47
1014.03 1015.70 1017.16 1017.55 1018.52 1017.62 1018.89 1020.38 1021.16 1021.57 1022.00 1022.60 1022.80 1022.91 1023.15 1023.36 1023.51 1023.58 1023.87 1023.83 1023.81 1023.88 1023.45 1023.23 1023.41 1023.31 1023.02 1022.95 1022.75 1022.76 1022.58 1022.60 1022.55 1022.47 1022.31 1022.10 1021.84 1020.87 1021.50 1021.12 1021.44 1021.86 1021.96 1021.73 1021.68 1021.88 1021.78 1021.66 1021.62
1014.25 1016.03 1017.45 1018.60 1018.91 1019.21 1020.32 1020.94 1021.66 1021.99 1022.51 1023.30 1023.55 1023.64 1023.81 1024.09 1024.31 1024.50 1024.50 1024.50 1024.45 1024.36 1024.13 1024.00 1024.06 1024.00 1023.69 1023.58 1023.27 1022.81 1022.74 1022.64 1022.54 1022.44 1022.23 1021.92 1021.76 1021.36 1021.60 1021.45 1021.23 1021.46 1021.84 1022.07 1021.89 1021.89 1021.98 1021.81 1021.87
1014.57 1016.37 1018.25 1019.19 1019.43 1019.82 1020.88 1021.53 1022.17 1022.51 1022.76 1023.20 1023.58 1024.04 1024.55 1024.80 1024.97 1025.19 1025.27 1025.20 1025.07 1025.01 1025.00 1024.90 1024.77 1024.33 1024.26 1024.18 1024.14 1023.88 1023.32 1022.82 1022.95 1022.45 1022.27 1022.38 1022.25 1021.60 1021.82 1021.62 1021.13 1021.13 1021.41 1021.80 1021.54 1021.85 1021.91 1022.08 1021.86
1014.46 1015.70 1017.64 1018.73 1020.18 1020.83 1021.03 1022.18 1022.80 1023.17 1023.28 1023.62 1024.13 1024.59 1025.05 1025.40 1025.66 1025.80 1025.74 1025.64 1025.45 1025.19 1025.13 1025.17 1025.26 1024.67 1024.37 1024.20 1024.26 1024.04 1023.46 1023.16 1023.14 1022.73 1022.57 1022.46 1022.18 1021.75 1021.46 1021.34 1021.19 1020.55 1020.73 1021.24 1021.47 1021.77 1021.70 1021.78 1021.55
1014.17 1015.26 1016.66 1018.30 1019.38 1020.76 1021.09 1022.41 1022.87 1023.26 1023.61 1023.89 1024.38 1024.87 1025.35 1025.68 1025.94 1026.09 1026.13 1025.99 1025.83 1025.63 1025.47 1025.45 1025.23 1024.95 1024.81 1024.55 1024.39 1024.48 1024.38 1024.09 1023.62 1023.38 1023.22 1022.84 1022.28 1021.82 1021.33 1021.36 1021.10 1020.26 1020.80 1021.02 1021.20 1021.29 1021.45 1021.44 1021.43
1014.07 1015.19 1016.61 1018.05 1019.00 1020.11 1021.50 1022.02 1022.46 1023.01 1023.41 1023.83 1024.42 1025.01 1025.53 1025.91 1026.16 1026.46 1026.43 1026.34 1026.17 1026.00 1025.84 1025.66 1025.45 1025.17 1025.12 1025.04 1024.98 1024.87 1024.67 1024.34 1023.86 1023.46 1023.27 1022.92 1022.47 1022.08 1021.71 1021.14 1020.59 1020.45 1020.74 1020.72 1020.92 1021.03 1021.07 1021.19 1021.27
1013.77 1015.27 1016.96 1018.25 1019.21 1020.57 1021.24 1021.82 1022.40 1022.72 1022.87 1023.68 1024.58 1025.20 1025.74 1026.26 1026.65 1026.72 1026.68 1026.55 1026.43 1026.09 1025.91 1025.75 1025.73 1025.59 1025.46 1025.30 1025.09 1024.90 1024.72 1024.36 1023.95 1023.48 1023.28 1022.93 1022.52 1021.90 1021.54 1021.15 1020.90 1020.62 1020.60 1020.59 1020.54 1020.81 1020.98 1021.12 1021.18
1014.27 1015.87 1017.44 1018.91 1019.85 1021.35 1021.62 1021.94 1022.15 1022.31 1022.60 1023.13 1024.17 1025.05 1025.73 1026.34 1026.78 1027.07 1027.09 1027.06 1026.85 1026.49 1026.23 1026.07 1025.96 1025.75 1025.57 1025.39 1025.14 1024.87 1024.60 1024.22 1024.09 1023.72 1023.32 1022.92 1022.56 1021.98 1021.41 1021.30 1021.18 1020.83 1020.60 1020.41 1020.26 1019.87 1020.37 1020.55 1020.97
1015.52 1016.48 1018.23 1019.72 1021.06 1021.82 1021.84 1022.16 1022.05 1022.23 1022.88 1023.64 1024.53 1025.50 1026.01 1026.36 1026.90 1027.33 1027.26 1027.19 1026.95 1026.63 1026.51 1026.34 1026.18 1026.01 1025.75 1025.52 1025.15 1024.84 1024.73 1024.55 1024.25 1023.93 1023.53 1023.04 1022.56 1021.92 1021.40 1021.23 1020.97 1020.75 1020.60 1020.33 1020.13 1019.96 1020.14 1020.26 1020.49
1016.02 1017.15 1018.37 1019.63 1021.04 1022.02 1022.64 1022.62 1022.25 1022.85 1023.77 1024.42 1024.96 1025.52 1026.02 1026.31 1026.72 1026.88 1027.07 1027.08 1026.87 1026.81 1026.69 1026.66 1026.45 1026.14 1025.83 1025.56 1025.16 1024.74 1024.54 1024.36 1024.18 1023.75 1023.40 1022.96 1022.38 1021.92 1021.43 1021.25 1021.03 1020.81 1020.63 1020.47 1020.24 1020.11 1019.86 1020.02 1020.35
1016.51 1017.70 1018.87 1020.14 1021.73 1022.65 1023.09 1023.12 1023.06 1023.42 1023.95 1024.71 1025.07 1025.39 1025.94 1026.13 1026.41 1026.64 1026.78 1026.80 1026.90 1026.83 1026.85 1026.64 1026.45 1026.21 1025.75 1025.32 1025.04 1024.78 1024.52 1024.33 1024.02 1023.64 1023.26 1022.88 1022.43 1022.04 1021.61 1021.25 1020.99 1020.86 1020.76 1020.63 1020.38 1020.16 1019.88 1019.91 1020.30
1017.94 1018.84 1020.17 1021.38 1022.58 1023.33 1023.89 1023.74 1023.86 1023.97 1024.01 1024.39 1024.73 1025.28 1025.75 1026.11 1026.41 1026.80 1027.00 1026.94 1027.00 1027.00 1026.81 1026.67 1026.36 1025.95 1025.38 1025.15 1024.96 1024.78 1024.56 1024.26 1024.01 1023.71 1023.28 1022.87 1022.50 1022.14 1021.78 1021.46 1021.34 1021.21 1021.19 1020.96 1020.79 1020.52 1020.35 1020.53 1020.54
1019.29 1020.25 1021.03 1022.28 1023.37 1023.93 1024.21 1024.40 1024.45 1024.43 1024.39 1024.71 1025.14 1025.45 1025.83 1026.32 1026.75 1027.02 1027.15 1027.19 1027.15 1027.07 1026.89 1026.66 1026.25 1025.78 1025.56 1025.35 1025.16 1024.99 1024.69 1024.37 1024.10 1023.78 1023.45 1022.91 1022.48 1022.21 1021.94 1021.89 1021.89 1021.76 1021.68 1021.51 1021.30 1021.12 1021.14 1021.10 1020.99
Wind_Speed
4 5 2 2 5 6 3 2 2 2 2 3 4 2 6 8 6 3 2 8 12 6 6 9 13 16 16 17 17 18 16 17 17 18 18 17 16 16 15 14 14 15 17 18 18 18 18 19 19
3 3 3 3 6 4 6 3 4 3 4 5 7 3 6 4 2 3 9 9 11 11 6 9 16 17 16 16 17 16 16 18 18 17 18 17 16 15 15 14 14 15 17 17 17 17 18 18 19
1 2 4 5 4 3 5 5 5 1 7 2 4 5 4 5 6 5 9 13 9 8 7 10 17 19 20 19 18 17 18 18 18 17 16 16 16 14 13 13 14 15 16 16 16 16 17 18 18
2 5 5 5 3 7 5 3 4 5 4 5 4 6 6 7 3 7 11 11 9 7 5 10 14 15 12 14 15 14 15 15 16 17 16 15 13 12 12 13 14 15 16 15 15 16 16 17 17
4 3 4 2 5 5 5 5 9 6 5 6 2 3 4 3 11 16 15 9 10 5 6 8 13 13 13 14 14 17 16 14 14 16 16 14 12 9 10 11 13 13 13 13 13 14 14 14 15
4 4 4 1 5 5 6 5 8 7 5 4 5 5 1 6 8 10 10 8 6 7 5 7 14 15 12 12 14 14 14 14 13 12 13 13 11 10 10 10 12 12 11 11 11 12 13 12 13
6 4 2 2 5 6 4 5 7 7 8 4 5 4 3 4 6 8 7 6 4 4 6 4 5 8 11 11 13 13 12 10 10 9 8 9 9 8 8 9 9 10 10 9 9 10 11 11 12
6 5 1 3 2 7 6 4 4 7 3 3 5 7 5 7 11 12 9 7 5 5 5 6 5 6 5 6 11 12 11 10 8 9 9 8 8 7 7 6 6 6 7 7 8 10 10 11 12
3 5 2 5 5 7 2 5 6 6 10 7 6 4 13 15 14 11 8 5 3 6 7 5 5 4 6 1 4 8 9 10 8 7 7 6 3 4 5 3 3 6 9 8 10 10 11 11 12
5 4 7 6 5 3 16 11 6 6 8 10 16 15 15 12 12 11 8 4 1 6 7 6 7 1 7 8 7 6 4 4 4 3 3 2 3 1 1 3 2 8 10 10 11 10 10 9 5
3 5 3 5 4 3 8 19 11 2 10 7 15 15 12 11 9 6 3 2 12 7 7 8 5 8 10 7 4 3 3 3 3 2 2 2 3 2 3 2 3 3 9 4 5 4 4 6 5
1 5 3 13 13 9 8 7 22 20 11 14 14 13 12 12 10 9 9 12 11 11 10 9 8 6 7 3 3 3 3 2 3 3 2 2 2 3 4 3 3 3 2 4 3 2 4 4 4
3 7 12 13 27 26 27 23 15 18 19 18 16 14 12 13 13 11 12 12 10 13 12 11 12 10 7 7 4 4 4 4 4 4 4 2 3 3 3 3 2 2 2 2 2 1 3 3 4
4 13 12 17 21 17 26 20 6 14 17 18 17 13 12 12 13 12 14 12 13 13 13 12 14 10 7 8 7 4 4 4 4 3 3 4 3 3 3 2 1 1 2 2 2 2 2 2 3
4 9 9 17 2 5 13 24 15 13 14 16 13 11 11 12 13 12 13 11 10 8 8 10 8 9 10 8 6 4 4 4 5 5 6 6 5 3 3 2 1 0 1 1 2 3 4 4 4
7 7 6 13 6 8 9 11 15 15 15 14 12 10 11 13 11 10 10 9 6 8 9 9 7 9 7 6 5 4 4 4 5 5 4 5 5 4 2 2 3 3 1 1 2 2 2 1 2
10 4 7 7 17 4 10 11 13 15 15 13 12 11 10 9 11 9 7 9 11 10 9 10 11 8 6 6 5 5 6 5 4 5 5 6 6 5 4 4 3 3 2 2 1 1 0 2 3
2 7 9 8 10 23 21 18 14 14 16 11 11 11 11 10 9 9 11 11 10 10 10 12 9 10 8 4 4 5 5 5 4 4 4 7 6 5 6 2 1 3 1 1 1 1 2 2 2
9 11 13 7 3 12 14 14 12 11 13 8 8 10 10 10 10 11 11 9 9 9 10 9 8 7 7 5 4 2 3 3 2 1 5 5 5 7 6 3 0 2 2 1 3 2 1 2 2
11 14 4 6 10 9 12 12 9 7 7 8 8 10 7 6 7 8 6 5 6 5 6 7 6 6 5 3 2 3 3 2 4 3 5 6 6 6 8 6 4 5 3 3 3 4 2 2 1
3 6 6 8 10 10 14 7 4 5 8 8 9 8 7 5 4 5 4 4 4 6 6 5 6 5 5 5 3 3 2 2 2 3 3 3 5 5 4 5 6 5 4 3 2 4 4 2 0
6 7 14 22 6 6 2 4 5 5 2 4 5 5 3 3 2 1 2 3 4 4 4 5 5 7 5 5 5 5 3 3 3 3 3 5 5 5 4 3 4 3 2 2 4 4 2 2 2
3 14 14 7 3 6 2 4 5 8 5 3 2 3 1 1 2 4 5 5 4 5 5 5 6 7 7 7 6 4 4 2 3 3 6 5 5 5 5 4 4 2 2 2 3 3 3 3 2
4 6 4 4 3 3 2 4 5 6 5 8 5 4 4 1 3 5 6 6 7 7 6 6 7 6 6 5 6 6 5 6 5 5 4 3 3 4 4 6 4 3 2 2 1 2 4 4 4
8 7 3 4 6 3 4 3 0 4 6 8 9 6 4 2 3 5 6 7 7 6 5 4 5 6 6 7 7 7 6 6 7 7 5 7 5 3 6 4 4 2 3 4 4 4 4 4 3
3 4 5 3 2 2 5 2 4 4 2 5 4 5 3 3 4 5 5 6 4 3 4 5 6 6 7 6 7 6 5 3 3 4 5 5 4 5 5 5 4 5 5 4 3 2 2 4 4
6 5 3 5 1 4 1 2 4 3 2 2 3 4 4 5 4 2 2 1 3 4 5 6 6 6 6 6 6 5 4 5 5 7 5 4 5 5 5 5 5 4 4 4 4 2 1 1 2
6 1 5 5 3 3 3 4 4 6 6 3 3 5 4 5 2 1 3 3 3 4 4 5 5 5 6 6 5 5 5 5 5 5 6 6 5 6 6 6 6 4 4 4 4 4 2 3 3
7 5 5 4 3 2 0 5 6 5 4 7 4 3 3 1 2 3 3 3 4 4 5 6 6 6 6 5 6 6 5 5 5 4 5 5 4 5 6 6 4 6 6 7 4 4 7 6 3
4 2 3 5 4 2 3 4 4 4 4 4 4 3 4 5 4 3 3 4 4 6 6 6 6 7 6 5 5 5 5 6 6 6 7 6 5 6 6 6 6 6 6 6 6 6 6 5 4
Wind_Direction
122 128 104 51 51 61 294 314 253 246 332 340 86 109 118 44 103 86 238 131 127 115 120 128 136 116 115 116 119 118 114 114 113 117 114 111 108 103 95 90 85 83 81 79 73 67 62 55 47
108 119 52 76 78 40 291 228 233 198 112 114 91 81 52 79 131 203 145 136 139 136 137 134 125 127 126 127 124 125 123 120 120 122 121 120 115 111 105 98 93 91 87 81 74 67 60 48 41
36 66 78 89 106 174 230 217 198 222 133 357 71 68 89 127 140 152 132 140 148 131 134 145 139 143 147 144 142 141 134 132 130 124 119 117 115 112 109 104 101 98 93 85 77 67 57 45 44
100 10 31 80 242 249 217 219 180 135 82 16 94 63 67 22 143 154 134 127 137 123 121 137 134 131 134 130 128 125 122 122 125 125 125 124 120 123 121 113 107 104 98 88 77 67 53 47 48
37 57 52 27 272 264 245 246 145 92 120 48 358 69 62 46 122 137 141 136 132 126 136 138 139 141 144 140 139 133 129 127 132 132 135 134 135 123 98 91 90 90 87 82 76 69 56 50 46
43 101 59 238 260 264 273 174 138 104 89 130 68 81 39 130 123 127 128 133 140 145 150 149 145 138 136 142 132 129 134 141 144 144 142 137 131 119 110 102 95 91 88 87 79 74 57 51 45
117 85 213 251 275 305 262 105 106 116 131 99 115 77 162 117 111 112 117 117 97 95 89 82 94 128 141 136 133 135 138 145 143 140 132 130 124 114 104 99 102 98 91 87 89 76 59 53 51
109 93 99 255 250 278 331 27 105 100 102 120 124 176 181 148 131 128 131 115 68 85 67 60 58 87 73 118 143 150 155 154 154 149 140 126 119 116 112 86 101 92 81 87 86 66 64 57 36
126 58 280 233 172 274 103 68 9 15 85 46 355 65 120 132 137 122 113 64 46 69 52 48 43 61 67 34 148 157 170 165 156 145 140 97 101 75 78 83 109 109 92 85 80 70 57 43 22
89 100 235 209 154 306 54 62 355 63 57 66 79 97 105 120 134 120 127 137 246 62 38 6 359 305 86 29 20 22 14 30 41 44 70 88 80 26 173 17 163 147 87 79 70 58 48 31 14
159 198 222 309 197 54 100 50 19 13 39 62 122 115 103 104 109 125 118 44 43 54 45 10 354 26 63 29 11 27 2 12 28 63 76 34 38 65 82 74 63 62 77 63 54 42 43 18 11
290 260 323 346 26 54 59 75 62 56 72 96 89 84 68 50 44 25 20 40 44 50 41 7 8 56 62 73 60 50 36 15 12 15 43 60 37 59 91 97 103 90 112 109 86 28 18 19 4
192 43 59 85 74 79 83 70 75 65 75 77 79 64 61 44 26 26 58 49 47 46 38 24 41 24 44 55 48 40 26 34 42 41 48 80 85 81 85 104 107 108 99 103 89 6 20 360 8
41 87 94 64 80 98 85 60 65 55 76 73 72 66 57 59 54 43 50 51 51 49 34 32 35 41 40 68 54 60 65 51 43 35 51 67 96 113 118 95 77 114 101 65 62 14 12 359 3
95 111 107 28 287 161 121 56 82 80 73 74 70 71 60 57 56 52 62 60 60 57 55 45 48 29 37 22 40 45 43 55 46 33 26 26 8 6 59 37 325 275 126 28 17 20 7 355 351
50 64 65 11 3 4 96 100 85 80 72 70 70 76 70 69 65 61 62 67 66 67 49 47 45 43 23 33 22 29 29 36 44 29 349 9 348 8 344 91 280 227 224 122 51 35 328 331 338
17 61 26 23 13 79 78 105 86 86 83 69 67 67 71 64 54 50 44 50 45 45 42 48 42 26 24 6 24 21 24 30 24 32 3 349 343 323 266 247 259 219 313 24 54 75 211 308 341
94 109 55 68 29 77 83 89 87 85 83 75 71 63 64 65 49 43 40 43 42 40 50 49 42 26 22 23 20 15 12 1 13 21 358 332 341 349 282 315 283 356 262 268 201 261 347 310 330
79 89 112 135 71 77 96 99 98 95 98 88 80 79 69 45 43 38 33 32 38 38 48 45 44 22 31 4 353 14 356 337 321 335 341 340 339 346 318 261 63 208 226 326 323 11 294 303 342
104 111 92 57 91 87 101 90 80 80 83 95 81 70 65 53 36 35 34 35 42 45 40 32 20 30 29 19 332 324 329 335 323 321 334 324 320 335 316 286 266 216 189 225 185 215 186 253 225
103 134 178 136 91 86 125 98 107 96 86 80 71 72 58 48 40 27 15 15 25 36 27 17 350 10 4 351 319 302 312 321 285 317 324 307 309 314 314 307 273 217 166 179 215 217 185 226 223
60 118 129 139 118 185 169 133 175 158 127 106 88 80 45 18 35 296 332 7 5 4 357 338 342 355 348 346 356 357 317 320 313 307 295 308 320 320 341 327 341 65 170 195 212 211 201 165 235
95 144 150 155 101 115 153 104 143 164 209 201 126 112 242 251 299 342 346 343 326 341 336 341 342 344 352 357 358 345 331 278 295 315 321 321 320 329 331 347 22 25 225 210 246 260 206 196 193
112 120 89 92 134 62 191 147 191 184 192 175 171 208 200 255 327 331 315 334 326 336 337 340 341 337 342 341 339 339 322 321 332 328 319 319 307 307 321 336 338 355 254 233 236 237 261 247 231
51 50 337 354 1 249 311 62 335 176 178 186 188 186 167 211 302 307 325 320 312 324 337 336 349 329 339 343 333 327 327 336 339 330 327 325 322 309 320 332 324 312 291 272 240 181 233 228 223
58 117 142 270 236 236 353 146 226 165 100 91 101 122 173 230 253 276 310 295 301 20 5 345 359 346 340 332 314 312 322 322 309 315 309 300 295 308 316 313 318 323 318 308 268 271 222 213 221
325 31 191 114 68 92 268 253 276 158 131 83 151 141 214 229 233 271 302 149 3 347 357 339 333 326 320 309 306 314 334 333 316 306 292 289 304 312 317 318 307 315 319 331 324 290 230 152 180
84 261 10 9 314 288 247 283 274 216 214 213 220 189 233 247 267 128 178 22 344 338 313 326 332 300 292 308 315 311 318 324 317 314 321 331 336 332 332 336 341 0 18 7 7 338 12 89 108
351 12 40 110 103 192 267 269 360 13 148 189 214 172 222 213 120 93 20 355 319 327 352 337 328 309 321 340 324 332 335 339 338 337 342 345 330 337 342 352 12 38 28 13 14 20 32 28 343
68 48 107 113 284 77 147 293 342 9 53 113 84 109 93 91 81 61 28 12 356 351 339 327 333 339 338 334 346 349 344 348 353 351 339 333 352 353 19 29 26 33 29 22 19 22 15 20 13